User: anonymous   Login
Location: Ford County Road and Bridge Department
(37.7686°N, 99.9762°W)
Time: 20:38:11
(UTC+00:00)
Language:

Cosmos 2297 Rocket - Orbit

View from above orbital plane
View from above orbital plane
View from above satellite
View from above satellite

Ground track
Ground track

The orbit data is extracted from the following two-line orbital elements,

1 23405U 94077B   20087.84867691 -.00000271 +00000-0 -11474-3 0  9999
2 23405 070.9818 242.0413 0004648 243.2000 116.8647 14.15217978308816
Epoch (UTC): 27 March 2020 20:22:05
Eccentricity: 0.0004648
inclination: 70.9818°
perigee height: 838 km
apogee height: 845 km
right ascension of ascending node: 242.0413°
argument of perigee: 243.2000°
revolutions per day: 14.15217978
mean anomaly at epoch: 116.8647°
orbit number at epoch: 30881

The dashed part of the orbit path shows where the satellite is in the earth's shadow,  

DLR